| time (UTC) | temp C | wind direction | speed KPH | gust KPH | rain 1hr cm | rain 24hr cm | rain mn cm | humidity % | barometer mb |
| 20260504034534 | 12 | 103 | 1.6 | 4.8 | 0.00 | 0.00 | 0.00 | 79 | 1007.1 |
| 20260504033036 | 12 | 102 | 0.0 | 4.8 | 0.00 | 0.00 | 0.00 | 78 | 1007.3 |
| 20260504031529 | 12 | 99 | 0.0 | 8.0 | 0.00 | 0.00 | 0.00 | 78 | 1007.5 |
| 20260504030030 | 12 | 102 | 0.0 | 6.4 | 0.00 | 0.00 | 0.00 | 78 | 1007.5 |
| 20260504024523 | 12 | 103 | 0.0 | 4.8 | 0.00 | 0.00 | 0.00 | 77 | 1007.5 |
| 20260504023027 | 12 | 103 | 0.0 | 3.2 | 0.00 | 0.00 | 0.00 | 77 | 1007.5 |
| 20260504021520 | 13 | 102 | 1.6 | 8.0 | 0.00 | 0.00 | 0.00 | 76 | 1007.6 |
| 20260504020019 | 13 | 97 | 0.0 | 4.8 | 0.00 | 0.00 | 0.00 | 75 | 1007.6 |
| 20260504014615 | 13 | 114 | 3.2 | 8.0 | 0.00 | 0.00 | 0.00 | 73 | 1007.6 |
| 20260504013017 | 13 | 232 | 0.0 | 1.6 | 0.00 | 0.00 | 0.00 | 73 | 1007.8 |
| 20260504011518 | 13 | 197 | 0.0 | 6.4 | 0.00 | 0.00 | 0.00 | 72 | 1007.9 |
| 20260504010009 | 14 | 194 | 1.6 | 8.0 | 0.00 | 0.00 | 0.00 | 71 | 1008.0 |
| 20260504004507 | 14 | 79 | 1.6 | 11.3 | 0.00 | 0.00 | 0.00 | 71 | 1008.1 |
| 20260504003006 | 14 | 194 | 0.0 | 6.4 | 0.00 | 0.00 | 0.00 | 70 | 1008.3 |
| 20260504001503 | 14 | 248 | 0.0 | 3.2 | 0.00 | 0.00 | 0.00 | 70 | 1008.4 |
| 20260504000002 | 15 | 248 | 0.0 | 3.2 | 0.00 | 0.00 | 0.00 | 69 | 1008.5 |
| 20260503234600 | 15 | 236 | 1.6 | 6.4 | 0.00 | 0.00 | 0.00 | 68 | 1008.5 |
| 20260503234503 | 15 | 227 | 3.2 | 6.4 | 0.00 | 0.00 | 0.00 | 68 | 1008.5 |
| 20260503233058 | 15 | 238 | 0.0 | 6.4 | 0.00 | 0.00 | 0.00 | 67 | 1008.5 |
| 20260503231557 | 15 | 233 | 1.6 | 11.3 | 0.00 | 0.00 | 0.00 | 67 | 1008.4 |
| 20260503230100 | 15 | 239 | 0.0 | 9.7 | 0.00 | 0.00 | 0.00 | 65 | 1008.4 |
| 20260503224556 | 16 | 251 | 0.0 | 6.4 | 0.00 | 0.00 | 0.00 | 64 | 1008.5 |
| 20260503223054 | 16 | 238 | 1.6 | 9.7 | 0.00 | 0.00 | 0.00 | 63 | 1008.4 |
| 20260503221553 | 16 | 201 | 1.6 | 9.7 | 0.00 | 0.00 | 0.00 | 63 | 1008.3 |
| 20260503220056 | 16 | 194 | 1.6 | 14.5 | 0.00 | 0.00 | 0.00 | 62 | 1008.2 |
| 20260503214551 | 17 | 252 | 3.2 | 11.3 | 0.00 | 0.00 | 0.00 | 61 | 1008.1 |
| 20260503213048 | 17 | 278 | 3.2 | 11.3 | 0.00 | 0.00 | 0.00 | 61 | 1008.0 |
| 20260503211549 | 17 | 278 | 1.6 | 9.7 | 0.00 | 0.00 | 0.00 | 61 | 1007.8 |
| 20260503210047 | 17 | 242 | 0.0 | 11.3 | 0.00 | 0.00 | 0.00 | 61 | 1007.8 |
| 20260503204548 | 17 | 279 | 1.6 | 8.0 | 0.00 | 0.00 | 0.00 | 62 | 1007.7 |
| 20260503203020 | 17 | 283 | 0.0 | 6.4 | 0.00 | 0.00 | 0.00 | 62 | 1007.5 |
| 20260503201517 | 18 | 302 | 6.4 | 12.9 | 0.00 | 0.00 | 0.00 | 61 | 1007.2 |
| 20260503200015 | 18 | 220 | 0.0 | 6.4 | 0.00 | 0.00 | 0.00 | 61 | 1006.9 |
| 20260503194513 | 18 | 213 | 0.0 | 8.0 | 0.00 | 0.00 | 0.00 | 61 | 1006.7 |
| 20260503193013 | 18 | 259 | 3.2 | 12.9 | 0.00 | 0.00 | 0.00 | 61 | 1006.5 |
| 20260503191527 | 18 | 280 | 4.8 | 16.1 | 0.00 | 0.00 | 0.00 | 60 | 1006.4 |
| 20260503190044 | 19 | 237 | 3.2 | 14.5 | 0.00 | 0.00 | 0.00 | 59 | 1006.2 |
| 20260503184545 | 20 | 247 | 6.4 | 17.7 | 0.00 | 0.00 | 0.00 | 57 | 1006.2 |
| 20260503183012 | 20 | 355 | 3.2 | 16.1 | 0.00 | 0.00 | 0.00 | 56 | 1006.2 |
| 20260503181511 | 21 | 234 | 8.0 | 17.7 | 0.00 | 0.00 | 0.00 | 54 | 1006.1 |
| 20260503180008 | 21 | 255 | 8.0 | 17.7 | 0.00 | 0.00 | 0.00 | 53 | 1006.0 |
| 20260503174508 | 21 | 270 | 4.8 | 20.9 | 0.00 | 0.00 | 0.00 | 53 | 1005.8 |
| 20260503173007 | 21 | 272 | 4.8 | 19.3 | 0.00 | 0.00 | 0.00 | 51 | 1005.7 |
| 20260503171506 | 22 | 299 | 8.0 | 17.7 | 0.00 | 0.00 | 0.00 | 48 | 1005.8 |
| 20260503160116 | 23 | 132 | 3.2 | 16.1 | 0.00 | 0.00 | 0.00 | 36 | 1006.0 |
| 20260503081548 | 15 | 257 | 0.0 | 6.4 | 0.00 | 0.00 | 0.00 | 84 | 1009.0 |
| 20260503071550 | 15 | 215 | 1.6 | 8.0 | 0.00 | 0.00 | 0.00 | 85 | 1008.9 |
| 20260503060107 | 15 | 348 | 0.0 | 0.0 | 0.00 | 0.00 | 0.00 | 84 | 1008.0 |
| 20260503054511 | 15 | 348 | 0.0 | 0.0 | 0.00 | 0.00 | 0.00 | 84 | 1007.9 |
| 20260503053011 | 15 | 348 | 0.0 | 0.0 | 0.00 | 0.00 | 0.00 | 83 | 1007.9 |
| 20260503051511 | 15 | 348 | 0.0 | 3.2 | 0.00 | 0.00 | 0.00 | 83 | 1008.1 |
| 20260503050008 | 15 | 348 | 0.0 | 0.0 | 0.00 | 0.00 | 0.00 | 83 | 1008.0 |
| 20260503044506 | 15 | 348 | 0.0 | 0.0 | 0.00 | 0.00 | 0.00 | 82 | 1008.1 |
| 20260503043018 | 15 | 348 | 0.0 | 6.4 | 0.00 | 0.00 | 0.00 | 83 | 1008.3 |
| 20260503041502 | 15 | 328 | 0.0 | 4.8 | 0.00 | 0.00 | 0.00 | 82 | 1008.2 |
| 20260503040001 | 15 | 328 | 0.0 | 0.0 | 0.00 | 0.00 | 0.00 | 82 | 1008.3 |